Observations for Trim Market St
| Time | AQI | Temp °C | Hum % | Pres Pa | CO μg/m³ | H₂S μg/m³ | NO μg/m³ | NO₂ μg/m³ | O₃ μg/m³ | SO₂ μg/m³ | PM1 μg/m³ | PM2.5 μg/m³ | PM10 μg/m³ |
|---|---|---|---|---|---|---|---|---|---|---|---|---|---|
| Tuesday 11 August 2026 | |||||||||||||
| 15:45 | 3 | 41.9 | 16 | 67,264 | 0 | 0 | 0 | 16.72 | 73.2 | 5.31 | 0 | 3.33 | 3.66 |
| 15:44 | 3 | 41.7 | 17 | 67,276 | 0 | 0 | 0 | 15.74 | 62.85 | 5.25 | 0 | 3.32 | 3.65 |
| 15:43 | 3 | 41.6 | 17 | 67,266 | 0 | 4.45 | 0 | 22.94 | 65.17 | 4.85 | 0 | 3.87 | 4.26 |
| 15:42 | 3 | 41.5 | 17 | 67,226 | 0 | 11.02 | 0 | 42.42 | 72.03 | 4.28 | 0.71 | 4.43 | 4.88 |
| 15:41 | 3 | 41.4 | 17 | 67,204 | 0 | 0 | 0 | 21.05 | 63.93 | 4.84 | 0 | 3.31 | 3.65 |
| 15:40 | 3 | 41.3 | 17 | 67,179 | 0 | 4.38 | 0 | 15.06 | 79.82 | 7.66 | 0.71 | 3.87 | 4.26 |
| 15:39 | 3 | 41.2 | 17 | 67,181 | 0 | 0 | 0 | 17.86 | 69.45 | 5.02 | 0 | 3.87 | 4.26 |
| 15:38 | 3 | 41.1 | 17 | 67,157 | 0 | 0 | 0 | 25.11 | 63.88 | 3.87 | 0.71 | 4.42 | 4.86 |
| 15:37 | 3 | 41 | 17 | 67,157 | 0 | 0 | 0 | 33.47 | 52.84 | 3.25 | 0 | 3.31 | 3.64 |
| 15:36 | 3 | 41 | 17 | 67,153 | 0 | 0 | 0 | 16.1 | 54.23 | 6.25 | 1.43 | 4.42 | 4.87 |
| 15:35 | 3 | 41 | 17 | 67,151 | 0 | 4.67 | 0 | 17.96 | 73.92 | 5.21 | 0.71 | 4.42 | 4.87 |
| 15:34 | 3 | 40.9 | 17 | 67,147 | 0 | 9.17 | 0 | 16.44 | 72.32 | 6.48 | 0 | 3.86 | 4.24 |
| 15:31 | 2 | 40.9 | 17 | 67,139 | 0 | 0 | 0.01 | 14.92 | 48.08 | 7.76 | 0.71 | 4.42 | 4.87 |
| 15:30 | 2 | 40.8 | 18 | 67,137 | 0 | 14.51 | 0.01 | 16.88 | 95.64 | 6.75 | 0 | 3.85 | 4.23 |
| 15:29 | 2 | 40.8 | 17 | 67,128 | 0 | 17.69 | 0 | 18.18 | 74.03 | 6.76 | 0.71 | 3.85 | 4.24 |
| 15:28 | 2 | 40.7 | 17 | 67,092 | 0 | 15.56 | 0.02 | 26.12 | 78.01 | 5.56 | 0 | 3.86 | 4.24 |
| 15:27 | 2 | 40.7 | 17 | 67,130 | 0 | 4.28 | 0.02 | 15.09 | 78.54 | 7.55 | 0 | 3.29 | 3.62 |
| 15:26 | 2 | 40.6 | 17 | 67,155 | 0 | 21.25 | 0.04 | 19.32 | 89.36 | 6.99 | 0.71 | 4.42 | 4.86 |
| 15:25 | 2 | 40.6 | 17 | 67,133 | 0 | 10.95 | 0.04 | 16.54 | 82.06 | 6.25 | 0.71 | 4.42 | 4.86 |
| 15:24 | 2 | 40.6 | 17 | 67,132 | 0 | 14.24 | 0.07 | 17.2 | 94.48 | 7.18 | 1.43 | 4.99 | 5.49 |